Price, UT

2:59 AM MDT on July 24, 2017 (GMT -0600)
Carbon County

Weather History for KPUC - March, 2014

Change the Weather History Date:

Monday, March 10, 2014

  Actual Average Record
Temperature  
Mean Temperature 46 °F -  
Max Temperature 59 °F 47 °F 70 °F (1989)
Min Temperature 33 °F 25 °F 6 °F (1969)
Degree Days  
Heating Degree Days 19    
Moisture  
Dew Point 20 °F    
Average Humidity 40    
Maximum Humidity 60    
Minimum Humidity 21    
Precipitation  
Precipitation 0.00 in - - ()
Sea Level Pressure  
Sea Level Pressure 30.02 in    
Wind  
Wind Speed 8 mph (NE)    
Max Wind Speed 20 mph    
Max Gust Speed 34 mph    
Visibility 10 miles    
Events      
Averages and records for this station are not official NWS values.
T = Trace of Precipitation, MM = Missing Value Source: NWS Daily Summary

Daily Weather History Graph

Daily Weather History Graph

Search for Another Location

Airport or City:

Trip Planner

Search our weather history database for the weather conditions in past years. The results will help you decide how hot, cold, wet, or windy it might be!

Date:

Astronomy

Mar. 10, 2014 Rise Set
Actual Time 7:42 AM MDT 7:24 PM MDT
Civil Twilight 7:15 AM MDT 7:51 PM MDT
Nautical Twilight 6:44 AM MDT 8:22 PM MDT
Astronomical Twilight 6:12 AM MDT 8:54 PM MDT
Moon 2:12 PM MDT (3/10) 3:55 AM MDT (3/10)
Length of Visible Light 12h 36m
Length of Day
11h 42m
Waxing Gibbous, 70% of the Moon is Illuminated
Mar 10
Waxing Gibbous
Mar 16
Full
Mar 23
Last Quarter
Mar 30
New
Apr 7
First Quarter

Hourly Weather History & Observations

Time (MDT) Temp. Windchill Dew Point Humidity Pressure Visibility Wind Dir Wind Speed Gust Speed Precip Events Conditions
12:53 AM 37.0 °F 29.8 °F 19.0 °F 48% 30.23 in 10.0 mi NNE 10.4 mph - N/A   Clear
1:53 AM 37.0 °F 29.8 °F 19.0 °F 48% 30.21 in 10.0 mi NNE 10.4 mph - N/A   Clear
2:53 AM 35.1 °F 27.9 °F 19.0 °F 52% 30.19 in 10.0 mi NNE 9.2 mph - N/A   Clear
3:53 AM 36.0 °F 30.3 °F 19.0 °F 50% 30.16 in 10.0 mi NE 6.9 mph - N/A   Clear
4:53 AM 33.1 °F 26.1 °F 19.0 °F 56% 30.14 in 10.0 mi NNE 8.1 mph - N/A   Clear
5:53 AM 33.1 °F 26.1 °F 19.0 °F 56% 30.14 in 10.0 mi NNE 8.1 mph - N/A   Clear
6:53 AM 36.0 °F 33.3 °F 21.0 °F 55% 30.12 in 10.0 mi North 3.5 mph - N/A   Mostly Cloudy
7:53 AM 34.0 °F 28.8 °F 19.9 °F 56% 30.13 in 10.0 mi ENE 5.8 mph - N/A   Clear
8:53 AM 39.0 °F - 21.0 °F 49% 30.15 in 10.0 mi Calm Calm - N/A   Clear
9:53 AM 46.0 °F 43.9 °F 21.0 °F 37% 30.12 in 10.0 mi SE 4.6 mph - N/A   Clear
10:53 AM 45.0 °F 43.5 °F 23.0 °F 42% 30.11 in 10.0 mi SW 3.5 mph - N/A   Clear
11:53 AM 48.9 °F - 19.9 °F 32% 30.07 in 10.0 mi SE 8.1 mph - N/A   Clear
12:53 PM 52.0 °F - 19.9 °F 28% 30.03 in 10.0 mi Variable 5.8 mph - N/A   Clear
1:53 PM 55.0 °F - 19.0 °F 24% 29.97 in 10.0 mi SE 9.2 mph - N/A   Clear
2:53 PM 55.9 °F - 17.1 °F 22% 29.91 in 10.0 mi Variable 6.9 mph - N/A   Clear
3:53 PM 57.0 °F - 18.0 °F 22% 29.87 in 10.0 mi South 4.6 mph 18.4 mph N/A   Clear
4:53 PM 59.0 °F - 19.0 °F 21% 29.85 in 10.0 mi SE 8.1 mph - N/A   Clear
5:53 PM 57.0 °F - 19.0 °F 23% 29.84 in 10.0 mi East 5.8 mph - N/A   Clear
6:53 PM 55.0 °F - 18.0 °F 23% 29.81 in 10.0 mi East 6.9 mph - N/A   Partly Cloudy
7:53 PM 48.9 °F - 19.0 °F 31% 29.83 in 10.0 mi NNW 8.1 mph - N/A   Scattered Clouds
8:53 PM 48.9 °F - 14.0 °F 25% 29.79 in 10.0 mi WSW 5.8 mph - N/A   Clear
9:53 PM 46.9 °F - 25.0 °F 42% 29.84 in 10.0 mi NNW 18.4 mph 34.5 mph N/A   Clear
10:53 PM 43.0 °F 34.5 °F 25.0 °F 49% 29.91 in 10.0 mi NW 19.6 mph 27.6 mph N/A   Overcast
11:53 PM 37.9 °F 28.5 °F 25.0 °F 60% 29.94 in 10.0 mi NNW 17.3 mph 24.2 mph N/A   Mostly Cloudy